Hourly Weather Skustele

Today, 3 July, Friday

Time Temperature Precipitation Wind Pressure Humidity
00:00 +16°C° 0 mm 1 mps 745 mmHg 92%
01:00 +15°C° 0 mm 1 mps 745 mmHg 92%
02:00 +15°C° 0 mm 1 mps 745 mmHg 91%
03:00 +15°C° 0 mm 1 mps 745 mmHg 91%
04:00 +15°C° 0 mm 1 mps 745 mmHg 91%
05:00 +15°C° 0 mm 1 mps 745 mmHg 91%
06:00 +18°C° 0 mm 1 mps 745 mmHg 87%
07:00 +19°C° 0 mm 1 mps 745 mmHg 83%
08:00 +19°C° 0 mm 2 mps 746 mmHg 80%
09:00 +21°C° 0.3 mm 2 mps 746 mmHg 76%
10:00 +23°C° 0.3 mm 2 mps 746 mmHg 72%
11:00 +24°C° 0.3 mm 2 mps 746 mmHg 68%
12:00 +24°C° 0.8 mm 2 mps 745 mmHg 69%
13:00 +24°C° 0.8 mm 2 mps 745 mmHg 70%
14:00 +24°C° 0.8 mm 2 mps 745 mmHg 72%
15:00 +24°C° 0.5 mm 2 mps 745 mmHg 73%
16:00 +24°C° 0.5 mm 2 mps 745 mmHg 75%
17:00 +22°C° 0.5 mm 3 mps 745 mmHg 77%
18:00 +21°C° 0.1 mm 3 mps 745 mmHg 81%
19:00 +20°C° 0.1 mm 2 mps 746 mmHg 85%
20:00 +19°C° 0.1 mm 2 mps 746 mmHg 89%
21:00 +18°C° 0 mm 2 mps 746 mmHg 92%
22:00 +17°C° 0 mm 2 mps 746 mmHg 94%
23:00 +16°C° 0 mm 3 mps 747 mmHg 96%

Tomorrow, 4 July, Saturday

Time Temperature Precipitation Wind Pressure Humidity
00:00 +15°C° 0 mm 2 mps 747 mmHg 96%
01:00 +14°C° 0 mm 2 mps 747 mmHg 96%
02:00 +13°C° 0 mm 2 mps 747 mmHg 95%
03:00 +13°C° 0 mm 2 mps 748 mmHg 95%
04:00 +12°C° 0 mm 2 mps 748 mmHg 95%
05:00 +12°C° 0 mm 2 mps 748 mmHg 95%
06:00 +14°C° 0 mm 2 mps 748 mmHg 89%
07:00 +15°C° 0 mm 1 mps 748 mmHg 83%
08:00 +18°C° 0 mm 1 mps 748 mmHg 77%
09:00 +19°C° 0 mm 2 mps 748 mmHg 70%
10:00 +20°C° 0 mm 2 mps 749 mmHg 64%
11:00 +23°C° 0 mm 2 mps 749 mmHg 57%
12:00 +22°C° 0 mm 3 mps 748 mmHg 57%
13:00 +24°C° 0 mm 3 mps 748 mmHg 56%
14:00 +25°C° 0 mm 4 mps 748 mmHg 56%
15:00 +23°C° 0.1 mm 4 mps 748 mmHg 59%
16:00 +24°C° 0.1 mm 3 mps 748 mmHg 63%
17:00 +24°C° 0.1 mm 3 mps 747 mmHg 66%
18:00 +22°C° 0.2 mm 3 mps 747 mmHg 72%
19:00 +21°C° 0.2 mm 2 mps 747 mmHg 78%
20:00 +21°C° 0.2 mm 1 mps 747 mmHg 85%
21:00 +20°C° 0 mm 1 mps 747 mmHg 86%
22:00 +19°C° 0 mm 1 mps 747 mmHg 87%
23:00 +18°C° 0 mm 1 mps 747 mmHg 88%

Day after tomorrow, 5 July, Sunday

Time Temperature Precipitation Wind Pressure Humidity
00:00 +17°C° 0 mm 2 mps 747 mmHg 89%
01:00 +17°C° 0 mm 2 mps 747 mmHg 90%
02:00 +17°C° 0 mm 2 mps 747 mmHg 91%
03:00 +17°C° 0 mm 2 mps 747 mmHg 91%
04:00 +17°C° 0 mm 2 mps 747 mmHg 92%
05:00 +17°C° 0 mm 3 mps 746 mmHg 92%
06:00 +18°C° 0 mm 3 mps 746 mmHg 89%
07:00 +18°C° 0 mm 3 mps 746 mmHg 85%
08:00 +19°C° 0 mm 4 mps 746 mmHg 82%
09:00 +20°C° 0 mm 4 mps 746 mmHg 79%
10:00 +20°C° 0 mm 4 mps 746 mmHg 76%
11:00 +21°C° 0 mm 5 mps 746 mmHg 73%
12:00 +20°C° 0 mm 5 mps 746 mmHg 75%
13:00 +20°C° 0 mm 5 mps 746 mmHg 77%
14:00 +20°C° 0 mm 4 mps 746 mmHg 79%
15:00 +21°C° 0.1 mm 5 mps 745 mmHg 77%
16:00 +22°C° 0.1 mm 5 mps 745 mmHg 75%
17:00 +23°C° 0.1 mm 6 mps 745 mmHg 72%
18:00 +22°C° 0.2 mm 5 mps 745 mmHg 77%
19:00 +21°C° 0.2 mm 4 mps 744 mmHg 81%
20:00 +20°C° 0.2 mm 3 mps 744 mmHg 86%
21:00 +20°C° 0 mm 4 mps 744 mmHg 88%
22:00 +19°C° 0 mm 4 mps 744 mmHg 90%
23:00 +18°C° 0 mm 4 mps 744 mmHg 93%

6 July, Monday

Time Temperature Precipitation Wind Pressure Humidity
00:00 +18°C° 0 mm 4 mps 743 mmHg 93%
01:00 +17°C° 0 mm 5 mps 743 mmHg 93%
02:00 +17°C° 0 mm 5 mps 743 mmHg 93%
03:00 +17°C° 0 mm 5 mps 743 mmHg 92%
04:00 +17°C° 0 mm 5 mps 743 mmHg 91%
05:00 +19°C° 0 mm 5 mps 742 mmHg 90%
06:00 +19°C° 0 mm 5 mps 743 mmHg 89%
07:00 +19°C° 0 mm 5 mps 743 mmHg 88%
08:00 +19°C° 0 mm 5 mps 743 mmHg 87%
09:00 +21°C° 0.1 mm 5 mps 743 mmHg 81%
10:00 +22°C° 0.1 mm 6 mps 743 mmHg 75%
11:00 +23°C° 0.1 mm 6 mps 743 mmHg 69%
12:00 +23°C° 0.1 mm 5 mps 743 mmHg 71%
13:00 +22°C° 0.1 mm 4 mps 743 mmHg 74%
14:00 +21°C° 0.1 mm 4 mps 743 mmHg 77%
15:00 +21°C° 0 mm 3 mps 743 mmHg 77%
16:00 +21°C° 0 mm 3 mps 743 mmHg 77%
17:00 +21°C° 0 mm 3 mps 743 mmHg 77%
18:00 +21°C° 0.1 mm 3 mps 742 mmHg 80%
19:00 +20°C° 0.1 mm 3 mps 742 mmHg 82%
20:00 +20°C° 0.1 mm 3 mps 742 mmHg 85%
21:00 +19°C° 0 mm 3 mps 743 mmHg 85%
22:00 +18°C° 0 mm 4 mps 743 mmHg 86%
23:00 +17°C° 0 mm 4 mps 743 mmHg 86%

7 July, Tuesday

Time Temperature Precipitation Wind Pressure Humidity
00:00 +14°C° 0 mm 3 mps 744 mmHg 88%
01:00 +14°C° 0 mm 2 mps 744 mmHg 91%
02:00 +13°C° 0 mm 2 mps 744 mmHg 93%
03:00 +13°C° 0 mm 2 mps 744 mmHg 93%
04:00 +12°C° 0 mm 2 mps 745 mmHg 94%
05:00 +12°C° 0 mm 2 mps 745 mmHg 94%
06:00 +12°C° 0 mm 3 mps 745 mmHg 88%
07:00 +13°C° 0 mm 3 mps 746 mmHg 83%
08:00 +15°C° 0 mm 4 mps 746 mmHg 78%
09:00 +17°C° 0 mm 4 mps 746 mmHg 74%
10:00 +18°C° 0 mm 4 mps 747 mmHg 70%
11:00 +19°C° 0 mm 4 mps 747 mmHg 66%
12:00 +19°C° 0.1 mm 4 mps 747 mmHg 66%
13:00 +19°C° 0.1 mm 4 mps 747 mmHg 65%
14:00 +19°C° 0.1 mm 5 mps 747 mmHg 64%
15:00 +19°C° 0.1 mm 5 mps 747 mmHg 64%
16:00 +17°C° 0.1 mm 5 mps 747 mmHg 65%
17:00 +17°C° 0.1 mm 5 mps 747 mmHg 65%
18:00 +17°C° 0 mm 4 mps 747 mmHg 70%
19:00 +16°C° 0 mm 3 mps 747 mmHg 75%
20:00 +15°C° 0 mm 2 mps 747 mmHg 79%
21:00 +13°C° 0 mm 2 mps 747 mmHg 82%
22:00 +12°C° 0 mm 2 mps 747 mmHg 84%
23:00 +10°C° 0 mm 2 mps 747 mmHg 87%

8 July, Wednesday

Time Temperature Precipitation Wind Pressure Humidity
00:00 +10°C° 0 mm 2 mps 747 mmHg 88%
01:00 +9°C° 0 mm 2 mps 747 mmHg 89%
02:00 +9°C° 0 mm 3 mps 747 mmHg 90%
03:00 +9°C° 0 mm 3 mps 747 mmHg 89%
04:00 +9°C° 0 mm 3 mps 747 mmHg 89%
05:00 +9°C° 0 mm 3 mps 747 mmHg 88%
06:00 +10°C° 0 mm 4 mps 747 mmHg 84%
07:00 +12°C° 0 mm 4 mps 747 mmHg 81%
08:00 +13°C° 0 mm 4 mps 746 mmHg 77%
09:00 +14°C° 0.4 mm 5 mps 746 mmHg 75%
10:00 +14°C° 0.4 mm 5 mps 746 mmHg 73%
11:00 +15°C° 0.4 mm 6 mps 746 mmHg 71%
12:00 +15°C° 0.6 mm 6 mps 746 mmHg 72%
13:00 +15°C° 0.6 mm 6 mps 746 mmHg 73%
14:00 +15°C° 0.6 mm 6 mps 746 mmHg 73%
15:00 +15°C° 0.3 mm 6 mps 746 mmHg 74%
16:00 +15°C° 0.3 mm 6 mps 746 mmHg 74%
17:00 +15°C° 0.3 mm 6 mps 746 mmHg 74%
18:00 +14°C° 0.1 mm 6 mps 746 mmHg 77%
19:00 +14°C° 0.1 mm 5 mps 746 mmHg 81%
20:00 +13°C° 0.1 mm 4 mps 746 mmHg 84%
21:00 +12°C° 0 mm 5 mps 747 mmHg 86%
22:00 +12°C° 0 mm 5 mps 747 mmHg 89%
23:00 +10°C° 0 mm 5 mps 748 mmHg 91%
Show more